Wind_Speed
27 26 26 27 28 29 29 28 26 24 23 25 27 28 26 25 24 22 20 19 17 17 17 16 16 17 16 16 23 27 24 22 20 18 17 16 15 14 13 13 13 14 15 16 17 17 17 18 18 18 17 16 16 15 15 15 14 14 14 14 13 13 13 13 13 12 12 12 13 14 15 16 15 14 14 14 14 14 14 14 14 15 15 14 14 13
28 27 27 29 31 32 33 32 29 26 25 25 27 29 28 27 25 24 22 21 20 20 18 18 17 18 17 16 22 26 23 23 22 20 19 18 17 16 14 13 12 13 14 15 16 16 17 17 17 17 17 17 17 17 16 16 15 14 13 13 13 13 13 12 12 11 11 11 11 13 15 15 15 14 14 14 13 13 14 15 15 15 15 15 14 13
29 28 29 30 32 33 34 34 32 30 27 26 28 30 29 28 27 25 24 23 22 21 20 19 18 18 18 18 21 24 23 23 23 22 22 21 19 18 16 15 13 13 15 16 17 17 17 17 17 18 18 18 18 17 16 16 15 15 14 13 13 12 12 11 11 11 11 11 11 13 14 15 15 14 14 14 13 13 15 15 16 16 15 15 15 14
27 29 30 31 31 32 33 35 35 34 31 29 29 31 31 30 29 27 26 25 24 23 22 21 20 19 19 19 21 21 21 21 21 20 20 20 20 19 19 18 16 15 15 17 18 19 19 18 18 18 18 18 18 17 16 16 16 15 15 14 13 12 11 10 10 11 12 12 12 13 15 16 16 15 14 14 13 14 15 15 16 15 15 15 14 14
26 29 32 32 32 32 33 34 35 35 34 31 30 31 33 32 31 30 28 27 26 25 24 23 21 20 20 20 21 20 19 19 18 17 17 17 16 15 15 17 16 16 15 17 20 20 20 20 19 19 19 18 18 17 17 17 16 15 16 15 13 11 10 10 11 12 13 14 14 15 16 18 18 17 15 14 14 14 14 15 16 15 15 14 14 14
28 30 31 32 32 33 33 33 34 34 34 33 30 30 32 34 34 32 31 30 28 27 27 25 23 22 21 20 19 18 18 18 17 17 17 17 14 10 10 12 13 13 13 15 18 21 22 22 22 20 19 19 19 18 18 17 16 15 15 14 13 12 11 11 12 13 14 15 16 17 18 18 17 16 15 14 14 13 14 15 15 15 15 14 14 13
29 29 29 30 31 32 32 32 32 32 32 32 31 30 32 35 35 34 33 32 30 30 29 28 26 24 22 20 18 16 16 16 16 16 16 16 15 13 11 11 11 11 11 11 13 18 22 23 23 22 21 21 20 20 19 17 16 15 14 13 13 13 13 13 14 14 15 16 17 17 17 16 15 15 14 14 14 13 13 14 15 15 14 14 13 13
30 30 29 29 29 29 30 29 29 30 30 30 31 31 33 35 36 35 34 34 34 33 31 29 28 26 24 21 18 17 16 15 14 15 15 15 16 15 13 11 11 11 12 11 11 14 18 22 23 23 23 23 22 21 20 18 18 17 15 14 13 13 14 15 15 15 15 15 16 16 16 15 15 15 14 14 13 13 13 14 14 14 14 13 12 12
30 31 29 27 26 26 26 28 29 29 28 28 32 35 36 36 38 38 36 35 35 34 32 30 29 27 26 24 20 19 18 17 17 17 18 18 18 17 16 14 12 13 13 14 14 14 16 19 22 24 25 24 24 23 22 21 20 18 16 15 14 13 14 15 15 15 15 14 14 15 15 15 16 15 15 14 13 13 13 13 13 13 13 13 12 12
31 31 29 27 26 26 26 27 28 28 28 30 32 35 37 38 38 38 36 36 36 35 33 32 30 29 28 26 24 22 21 20 20 21 21 21 21 20 20 18 16 16 15 15 15 16 17 19 22 25 26 25 24 24 24 23 20 18 17 15 14 14 14 14 14 15 14 14 13 14 15 15 16 16 16 16 15 14 13 13 12 11 11 12 12 12
32 31 29 28 27 27 27 27 27 28 30 32 32 33 36 39 39 37 36 36 36 35 34 33 32 31 29 28 27 25 25 24 23 23 23 23 23 23 23 22 21 19 18 17 17 17 18 19 20 23 25 25 25 24 23 22 21 19 18 16 16 15 15 14 14 13 13 14 14 14 15 16 17 17 17 16 16 15 14 13 12 11 10 11 12 12
32 31 30 29 28 28 29 29 28 29 30 32 32 32 34 37 39 38 37 38 37 35 34 34 33 31 31 31 30 28 27 26 25 25 24 24 24 24 24 25 24 24 23 21 19 18 18 18 17 18 20 23 25 24 22 22 22 21 19 18 17 16 16 15 14 13 13 14 15 15 16 16 17 17 18 17 17 16 14 13 12 11 11 11 12 12
32 32 31 30 29 29 30 31 30 30 31 31 32 33 34 36 39 40 40 40 38 35 34 35 34 33 33 32 31 29 28 28 27 26 25 24 24 24 24 25 25 26 27 26 23 21 19 18 16 15 15 18 22 23 23 23 22 22 21 20 18 17 17 16 15 14 14 15 16 16 16 16 17 17 18 18 17 16 15 14 13 13 12 11 11 11
32 33 32 32 31 31 31 31 31 32 32 32 32 34 35 35 37 39 41 41 38 35 35 35 35 36 36 34 32 31 30 28 27 26 25 24 24 23 24 24 25 25 27 27 26 24 21 19 18 17 16 16 18 22 24 24 23 23 22 21 20 19 18 17 16 15 15 15 16 16 16 17 17 17 17 17 17 17 16 16 15 14 13 12 11 11
32 33 33 33 32 32 32 32 32 33 33 33 33 33 34 35 36 37 38 39 37 35 35 35 36 37 37 35 34 33 32 30 27 26 26 25 24 24 25 25 24 24 26 27 27 26 24 21 20 20 19 17 18 22 25 25 25 24 23 23 22 21 19 18 17 17 17 17 16 16 17 17 17 17 17 17 16 16 16 16 15 14 13 12 12 11
31 32 33 33 33 33 33 33 33 33 34 36 35 34 35 36 35 35 35 36 35 33 35 37 37 36 36 35 35 35 34 33 30 28 27 26 26 26 26 25 24 25 26 27 27 27 26 24 22 22 22 20 20 22 25 26 26 26 25 25 24 23 22 21 19 19 19 18 18 17 17 18 18 17 17 17 17 17 16 15 15 14 13 12 12 12
30 31 32 33 33 33 34 35 34 34 36 37 37 36 36 36 36 36 36 35 34 34 36 38 38 37 36 35 36 36 35 33 31 30 29 27 27 27 26 25 25 26 26 27 27 27 27 26 24 24 24 22 21 22 24 26 27 28 28 27 26 25 24 23 22 21 21 20 19 18 18 18 18 18 18 18 18 18 17 16 14 13 12 12 12 12
30 31 32 33 34 34 35 35 35 36 36 37 38 38 37 37 37 37 37 36 36 36 38 39 39 39 38 36 36 35 34 31 30 31 31 29 28 28 27 27 27 28 28 28 28 26 25 25 25 26 26 24 22 22 23 25 28 29 30 29 28 27 26 25 24 24 23 22 21 21 20 20 19 20 19 19 19 18 17 16 14 13 13 12 11 11
30 30 31 33 33 34 34 35 36 37 37 38 39 39 38 39 39 39 39 39 38 38 38 39 40 40 40 37 35 34 33 31 30 32 32 30 29 29 28 27 27 26 26 26 27 26 25 24 24 25 27 26 24 23 24 26 28 30 31 31 30 29 29 28 27 26 25 24 23 23 22 22 21 21 21 20 19 18 17 16 15 14 13 12 11 12
29 30 31 32 33 33 34 34 36 37 37 38 39 40 40 40 40 40 40 39 39 39 39 39 39 41 41 38 36 36 35 33 32 32 31 30 30 30 28 27 25 24 23 23 25 27 27 26 25 25 27 27 26 26 26 26 28 29 31 32 32 31 31 30 29 27 26 25 25 25 25 24 23 22 22 21 20 19 18 17 16 15 14 12 12 11
27 29 30 31 32 33 33 34 35 36 37 38 39 40 41 41 41 41 40 40 40 40 40 39 40 40 40 38 37 37 36 35 34 33 32 31 31 30 28 26 25 23 22 22 24 28 29 29 28 28 29 29 28 28 28 27 27 28 30 31 31 32 31 31 30 29 27 27 26 27 26 26 25 24 23 22 21 20 19 18 17 17 15 13 12 12
26 27 28 30 31 32 33 33 34 35 36 37 39 40 41 41 42 42 41 41 41 40 41 40 41 41 40 38 37 37 37 37 37 35 33 33 33 30 27 26 25 24 23 22 24 27 30 31 30 30 32 32 31 29 28 27 26 27 28 30 31 31 31 31 31 31 30 29 27 27 28 28 27 26 25 23 22 21 20 19 19 18 16 15 14 13
25 26 27 29 30 31 32 33 34 34 35 35 37 39 40 41 42 42 42 42 41 41 41 41 41 41 40 40 39 37 36 37 38 37 36 35 35 31 28 26 26 25 25 24 25 27 29 30 31 31 33 33 32 31 30 28 26 26 26 28 29 30 30 32 32 33 32 31 29 29 29 29 28 27 26 25 23 23 22 21 20 19 18 17 16 15
26 27 28 29 30 31 32 33 33 34 34 35 36 37 39 40 41 42 43 42 42 42 42 42 42 43 42 41 40 39 37 36 38 39 38 38 37 34 29 27 27 27 27 27 28 28 29 30 31 32 33 33 33 33 32 30 28 27 26 26 27 28 30 31 33 34 33 32 31 31 30 30 29 28 27 26 25 25 24 23 22 20 19 19 17 16
29 29 29 30 31 32 32 33 34 34 34 35 35 36 38 39 40 41 42 43 43 43 43 43 44 45 44 42 42 41 39 37 38 40 41 41 39 37 33 30 30 29 29 29 29 30 29 30 30 31 32 33 34 33 32 31 30 29 27 26 26 28 30 31 33 34 34 34 33 32 32 31 30 29 28 27 27 27 26 25 24 22 21 20 19 18
32 32 32 32 33 33 34 34 34 35 35 35 36 37 37 38 39 40 42 43 44 44 44 44 45 46 45 44 43 42 41 39 38 39 42 43 42 41 37 34 33 32 31 30 30 30 30 30 30 30 31 33 33 33 33 32 30 30 30 29 29 30 31 32 34 35 35 36 35 34 33 33 31 30 29 29 29 29 28 27 26 24 23 22 21 20
32 33 34 34 35 35 35 35 35 35 36 36 36 37 38 39 39 40 41 42 43 44 45 46 47 46 46 46 45 44 43 41 39 39 41 43 44 44 42 39 37 36 34 32 31 30 29 28 27 28 29 31 32 33 33 32 31 31 31 31 31 32 32 34 36 37 37 38 37 36 35 34 33 32 31 31 31 31 30 29 28 27 26 25 24 22
29 31 33 34 35 36 36 35 36 36 36 37 37 37 38 39 40 41 42 42 43 44 45 47 47 47 47 47 47 46 45 44 42 41 40 41 43 45 45 44 43 40 38 36 34 32 30 28 26 25 26 28 30 32 33 33 32 32 31 31 32 33 34 35 37 38 39 40 39 39 38 37 36 35 33 33 33 33 32 31 29 28 28 27 25 24
25 27 28 30 32 34 35 36 36 36 36 37 38 38 38 39 40 41 42 43 44 45 46 46 47 47 47 47 48 48 47 46 45 44 42 41 42 43 44 45 47 45 43 41 40 38 36 33 30 29 28 27 27 29 32 34 34 33 32 32 32 32 33 35 37 38 41 42 41 40 40 39 38 37 36 35 35 34 33 32 31 31 30 28 27 26
22 23 24 25 27 29 32 34 36 37 37 38 38 38 38 39 40 41 42 44 45 46 46 46 47 47 47 47 48 48 48 48 47 46 45 44 43 42 43 45 48 49 48 45 44 43 41 38 35 34 33 32 30 29 30 32 34 35 35 34 33 33 33 34 36 38 41 42 42 42 42 41 40 39 38 37 36 36 35 34 34 33 31 30 29 29
19 20 21 22 24 26 27 29 32 34 37 38 38 38 39 39 40 41 42 43 44 46 47 47 48 47 47 47 48 48 49 49 49 48 47 46 45 44 44 45 47 51 52 50 48 47 45 42 40 38 37 36 35 34 32 31 33 35 36 37 37 36 35 34 34 35 37 40 42 43 43 43 42 41 40 39 39 38 37 37 36 34 33 32 31 30
17 18 19 20 22 24 25 27 29 31 33 36 37 38 39 40 41 41 42 43 44 45 47 48 49 48 48 47 48 48 48 49 49 49 49 48 47 46 46 46 47 49 52 54 54 52 50 48 46 45 42 39 39 38 36 34 33 34 37 39 39 39 38 36 35 34 33 36 41 44 44 44 43 43 42 41 41 40 40 39 38 36 35 34 33 32
18 19 19 20 22 23 24 26 27 29 30 32 34 36 38 39 40 41 42 43 44 45 46 48 49 49 48 48 49 49 49 49 49 49 49 48 48 47 47 47 48 48 50 53 55 56 55 54 52 51 48 45 43 42 41 38 36 35 36 39 41 41 40 39 37 35 34 34 38 42 44 44 44 44 43 43 42 42 42 41 39 38 37 35 35 35
22 22 22 22 23 24 25 26 27 28 30 31 32 34 36 37 38 39 41 42 43 45 46 47 48 49 49 49 50 50 50 50 50 49 49 48 48 48 48 48 49 49 50 51 53 55 56 56 55 54 52 49 47 46 44 43 40 38 37 39 41 42 42 42 40 38 37 36 36 38 41 44 45 44 44 44 44 43 43 42 40 39 38 38 37 36
24 25 25 25 26 27 27 28 29 30 30 31 32 34 35 36 37 38 39 40 42 44 45 46 48 49 50 50 50 51 51 51 51 51 50 49 49 48 48 49 50 50 50 51 53 54 55 55 54 54 53 52 50 49 48 46 44 41 40 40 42 43 44 44 43 42 40 39 38 38 39 42 44 45 45 46 46 45 44 43 41 40 39 39 38 36
24 25 26 27 27 28 28 29 30 31 31 31 33 34 35 37 38 38 39 40 41 42 43 45 47 48 50 51 51 52 52 52 52 52 51 51 50 50 49 50 50 51 51 51 53 54 55 54 54 53 53 52 52 51 50 49 47 45 44 43 44 45 45 46 45 45 44 42 41 40 39 40 42 44 46 47 47 47 45 44 42 41 40 39 38 37
21 22 23 24 26 26 27 29 30 31 31 32 34 35 36 37 38 39 41 41 41 42 43 44 45 47 49 51 52 53 53 53 53 53 53 52 52 52 51 50 51 52 52 52 53 54 55 54 54 52 52 52 52 52 52 51 49 48 47 47 47 47 47 47 47 47 47 46 44 43 42 41 41 42 45 47 48 47 46 45 43 42 41 40 39 38
16 17 19 20 22 23 24 26 27 29 30 32 33 34 36 37 38 40 41 42 43 44 44 45 46 47 48 49 51 53 54 54 54 55 55 54 54 54 53 52 51 52 54 54 55 55 56 55 54 53 52 53 53 53 52 52 51 50 50 50 50 49 49 49 50 50 49 48 47 45 44 42 41 41 42 44 46 47 46 45 45 44 43 42 41 40
11 13 16 18 19 20 22 23 24 26 27 29 31 32 34 36 37 38 41 42 43 45 46 47 48 48 48 49 50 52 53 54 55 56 57 57 56 56 55 54 53 53 55 57 58 58 57 57 56 54 54 55 55 54 53 53 52 51 51 53 54 53 52 51 51 51 51 49 48 47 45 44 42 41 40 40 42 45 46 46 45 45 45 44 42 41
8 9 11 14 17 19 20 21 23 24 26 28 29 31 33 34 36 38 40 41 42 44 47 49 50 51 51 50 50 51 53 54 55 56 57 58 58 58 58 57 56 55 56 58 60 60 59 59 58 56 55 56 57 56 55 54 53 52 52 54 57 58 57 55 52 50 50 50 49 47 46 45 44 42 41 40 41 42 44 46 46 46 45 44 43 42
9 8 8 10 12 13 16 18 19 22 24 26 28 30 32 34 36 37 39 41 42 43 45 48 50 52 53 53 53 53 54 54 55 56 57 58 59 59 60 60 59 58 58 59 62 62 62 61 60 58 57 57 57 58 57 56 55 55 55 56 59 61 62 59 54 50 49 49 50 49 47 46 45 43 42 41 42 43 44 45 46 45 45 45 44 43
13 12 11 11 10 11 12 13 15 17 20 22 24 26 29 32 35 37 38 40 42 43 45 47 49 52 54 55 56 56 56 56 56 56 57 59 59 60 60 61 62 61 60 61 63 64 65 64 62 60 59 59 59 60 60 59 58 57 57 58 60 62 63 62 59 54 50 49 49 50 49 48 46 45 44 43 43 43 44 45 46 46 45 45 45 44
17 16 15 15 14 13 13 13 14 15 17 19 21 22 23 26 30 33 36 39 40 41 43 44 47 50 52 54 57 58 59 59 59 59 58 59 60 60 61 61 63 64 63 63 64 66 67 67 65 63 62 61 62 62 62 62 61 60 60 60 61 63 63 63 62 59 55 51 50 51 52 51 51 50 50 48 46 45 44 45 46 47 47 46 45 44
19 19 19 18 18 17 16 16 16 16 17 18 20 22 22 23 24 26 29 33 35 36 38 39 41 44 48 51 54 57 59 61 62 62 61 60 61 61 61 61 62 64 66 65 66 67 69 70 69 66 64 64 64 64 64 65 64 63 62 62 63 64 63 62 62 61 58 57 55 54 55 55 54 54 52 50 48 46 44 45 47 47 47 47 45 44
21 22 22 21 21 21 20 20 20 19 19 19 20 21 23 24 24 25 27 29 30 32 33 33 35 37 40 44 48 53 57 60 63 64 64 64 63 63 63 63 62 64 66 68 68 69 70 72 72 70 68 67 66 66 65 66 66 66 65 65 65 65 64 63 62 61 60 60 59 57 57 56 55 55 53 51 49 47 45 46 47 46 45 45 45 44
22 23 24 24 24 24 24 24 24 23 21 21 21 21 22 23 25 27 28 30 32 33 34 34 34 35 36 38 41 45 50 56 61 65 67 67 66 66 65 65 64 64 65 68 70 71 72 73 75 74 72 70 69 68 66 66 67 68 68 67 67 67 66 64 63 61 60 61 60 58 58 57 55 54 55 54 53 50 47 47 47 45 44 46 46 43
22 23 24 25 25 26 27 27 26 26 25 23 22 22 23 24 25 26 27 29 31 33 35 36 37 38 38 38 39 40 43 48 54 61 65 69 70 69 69 68 67 66 65 67 70 72 73 74 76 77 77 75 73 71 68 67 66 67 68 69 69 69 67 65 63 62 60 60 60 59 58 58 57 55 55 56 56 53 50 48 47 46 44 44 44 41
23 24 25 25 26 27 29 28 28 28 28 26 25 24 25 26 26 26 26 27 28 29 30 32 34 36 37 39 40 40 41 43 47 53 60 66 70 72 72 71 70 69 68 67 68 71 73 75 76 78 80 80 78 75 72 70 68 66 66 69 71 71 69 65 62 62 62 60 59 59 59 59 59 58 57 56 56 54 51 49 48 47 45 43 41 40
24 25 27 27 27 28 28 29 30 31 30 29 29 28 27 27 28 28 28 29 29 29 30 30 31 32 34 35 37 39 40 41 43 46 51 58 66 71 74 75 74 73 71 70 69 70 72 74 76 78 81 82 83 81 78 75 72 68 64 67 71 72 70 66 60 59 63 64 60 60 61 61 60 60 58 56 54 53 51 50 50 49 46 43 41 40
25 27 29 29 28 26 26 29 31 30 27 27 28 29 29 29 29 30 31 32 32 33 34 34 35 35 35 36 36 37 38 40 42 43 45 49 55 63 71 75 77 76 75 74 72 71 71 73 75 78 80 83 84 84 82 80 77 72 65 63 67 70 70 68 63 58 61 66 64 62 63 63 61 61 60 57 54 52 51 50 50 49 48 46 43 42
28 30 32 31 28 26 26 29 31 28 26 27 28 29 30 31 30 31 32 33 34 35 36 37 38 38 39 39 39 39 39 39 41 43 44 45 47 53 61 69 75 77 78 77 76 74 72 73 74 76 80 83 83 84 84 83 82 78 69 63 64 66 67 69 66 58 57 64 67 64 64 65 63 62 61 59 56 54 53 51 50 48 47 47 47 45
Wind_Direction
204 203 202 202 203 205 205 207 206 202 196 192 190 190 188 186 185 183 185 190 192 198 199 189 182 179 173 170 170 172 175 171 166 162 157 154 154 153 149 149 157 162 162 164 167 168 165 164 168 171 170 167 165 166 167 167 166 166 168 167 164 164 165 165 163 161 158 154 147 143 142 141 141 140 135 130 128 126 123 120 116 112 110 109 108 107
203 201 200 200 201 202 204 206 206 204 198 194 191 189 190 190 188 187 186 188 193 196 198 196 191 185 179 172 168 171 177 179 177 173 169 166 162 160 156 151 153 157 159 161 166 170 169 167 169 171 172 170 168 169 171 170 169 170 171 170 170 172 174 171 165 160 155 148 143 141 141 141 141 140 136 132 132 130 128 124 119 117 115 114 112 112
202 201 201 202 202 202 203 204 205 205 201 196 192 190 191 193 191 191 189 187 193 196 195 197 196 189 183 178 175 178 184 188 188 183 178 173 167 164 158 152 149 152 157 160 165 170 171 171 171 172 175 176 174 173 173 172 172 172 173 175 178 179 177 171 162 154 149 144 142 141 142 143 144 144 140 137 137 137 133 128 123 120 119 118 117 117
202 201 202 203 203 203 203 204 205 205 203 198 195 191 192 194 194 194 193 189 192 195 195 197 196 190 186 185 185 187 190 194 197 195 188 179 173 169 162 157 157 159 162 164 166 170 173 173 173 175 179 180 179 177 174 175 178 176 176 179 181 180 177 168 157 150 147 144 141 143 147 149 149 148 146 143 143 143 138 132 128 125 123 121 121 122
199 201 204 203 203 204 205 205 206 207 206 201 197 194 194 196 196 196 196 193 192 194 196 196 195 192 190 191 191 192 194 197 200 200 196 187 179 172 163 163 167 167 167 169 170 171 172 174 176 178 180 182 183 181 179 180 183 183 183 182 178 176 172 162 156 154 152 148 146 151 156 157 155 153 152 149 147 147 143 137 133 130 127 125 125 126
199 201 204 204 204 205 206 207 207 208 209 205 201 198 197 199 199 198 197 196 194 195 196 195 194 194 195 196 196 195 193 191 191 193 194 188 180 169 162 169 176 175 172 174 176 176 176 177 179 179 180 183 185 185 185 186 187 190 192 186 178 173 166 162 163 161 158 156 156 159 162 161 158 154 152 149 147 147 144 140 138 135 131 129 129 131
202 203 203 204 205 206 207 208 208 208 209 209 204 201 200 202 203 202 200 198 197 199 197 194 194 195 197 200 198 193 191 190 191 194 193 188 181 173 168 175 181 179 175 174 178 182 183 182 181 180 181 183 186 188 190 190 190 194 196 191 184 175 167 167 170 168 166 165 165 164 163 158 154 152 152 150 148 148 146 143 142 140 136 135 136 137
204 204 204 204 205 207 209 210 210 209 208 208 206 204 204 205 206 206 203 200 200 201 199 196 195 194 197 201 198 191 191 191 191 193 193 192 190 182 173 178 185 183 176 169 173 182 186 187 185 184 185 186 187 188 191 192 193 196 196 194 190 180 173 173 174 174 174 172 170 165 158 153 151 152 153 152 151 151 149 146 146 144 142 143 145 145
204 207 207 205 205 206 208 210 212 211 207 206 206 206 206 207 208 209 207 204 203 203 201 197 195 195 197 199 198 195 192 193 193 194 193 191 192 188 179 178 185 190 184 174 176 181 183 188 190 190 191 189 188 188 191 193 195 197 195 193 192 186 182 181 179 179 177 175 171 162 155 152 152 154 156 156 156 157 154 151 150 149 149 152 154 156
205 209 209 207 207 206 207 210 212 212 210 208 208 207 207 209 211 212 210 209 207 203 202 200 195 196 200 200 200 201 200 201 205 206 201 197 195 191 185 181 183 190 191 186 186 186 185 188 192 194 196 194 190 191 192 193 194 196 195 192 192 191 190 188 184 183 176 170 170 164 156 155 156 158 161 162 163 165 164 159 156 156 159 164 167 169
206 210 210 209 208 207 208 210 211 211 212 212 210 209 209 210 213 214 213 212 210 204 202 203 198 197 202 203 202 205 206 209 210 209 208 205 202 196 189 184 182 185 191 194 195 195 195 198 198 198 199 198 196 195 194 193 193 195 194 193 193 193 195 193 188 185 177 169 169 167 162 161 161 162 164 168 169 172 173 169 165 167 174 180 181 181
207 209 210 210 208 207 209 211 211 210 212 214 213 211 211 212 213 214 214 214 212 205 203 204 201 200 204 206 204 204 208 214 215 213 213 211 209 206 199 190 185 184 187 194 200 201 203 208 210 207 204 202 201 200 196 194 194 194 193 194 194 194 198 197 190 187 182 174 170 170 169 168 167 167 168 172 174 176 179 177 174 178 187 192 190 187
208 209 210 210 209 209 210 211 211 210 212 215 216 214 213 213 214 215 215 216 212 206 205 204 202 204 205 207 207 205 208 213 215 216 216 215 216 216 213 207 200 195 190 191 197 203 206 208 210 213 212 207 205 204 201 196 195 195 194 192 193 196 200 200 194 188 187 183 176 174 174 174 173 173 173 175 177 179 182 183 183 187 193 198 196 192
209 209 210 210 210 210 212 213 212 210 211 216 218 217 216 215 216 217 218 218 214 207 207 207 205 207 207 207 208 207 207 209 211 214 215 216 218 217 215 214 212 209 204 199 197 199 203 205 205 207 212 209 205 205 205 201 197 196 195 191 191 196 201 203 198 191 190 190 185 179 179 179 179 179 178 179 181 183 185 188 190 192 197 202 203 200
210 210 211 211 211 211 213 214 213 211 211 215 218 219 219 218 219 221 223 223 218 211 210 211 208 209 209 207 207 210 210 210 213 216 214 214 216 215 213 212 211 211 213 213 209 202 200 202 202 203 204 204 203 203 203 203 200 197 195 193 192 194 199 203 203 197 194 194 191 187 184 184 184 183 182 183 185 188 191 192 193 193 194 197 202 204
211 211 212 213 213 212 214 215 215 213 212 215 218 219 220 220 219 222 224 226 224 216 213 215 214 212 210 207 208 212 215 216 218 217 214 212 213 212 212 212 212 212 212 215 215 209 202 200 199 198 197 197 200 200 200 201 201 199 197 195 193 194 197 201 204 202 199 196 195 192 189 188 187 186 186 186 188 193 195 194 194 193 191 192 200 205
213 213 212 212 212 212 213 214 214 213 212 214 217 218 219 220 220 221 222 223 223 219 217 217 218 217 214 209 208 212 216 217 218 216 213 212 210 210 212 212 212 213 213 215 215 211 206 204 199 193 192 193 195 198 199 199 200 200 200 199 197 196 198 201 203 204 201 196 196 197 195 193 190 190 191 190 191 194 195 194 193 191 189 192 199 203
214 215 213 213 212 212 212 214 213 213 213 214 216 217 218 220 221 221 221 221 221 221 220 219 220 221 219 214 210 211 215 216 216 214 213 212 209 208 211 211 210 211 213 214 214 212 212 212 206 195 189 190 192 195 198 199 200 200 201 202 201 200 200 202 204 205 203 198 197 199 199 197 194 194 194 194 195 194 193 193 190 189 192 194 197 201
214 215 215 214 214 213 212 213 214 213 212 213 215 216 217 220 221 221 221 222 221 222 222 222 222 223 223 219 213 212 213 214 214 212 210 210 209 207 209 210 211 212 213 213 212 213 215 216 213 202 193 190 191 193 197 200 201 201 201 202 203 203 204 204 205 206 205 200 197 199 201 200 198 196 196 197 197 196 194 193 191 192 195 196 198 200
213 215 215 215 215 215 213 213 214 214 212 212 214 216 216 218 221 222 222 223 223 223 224 225 225 226 225 222 216 213 212 211 210 209 209 209 208 207 208 208 208 209 212 213 210 210 212 214 214 207 199 195 194 194 196 199 202 203 203 203 204 205 207 207 206 207 207 204 201 200 201 201 201 199 198 199 199 198 197 195 194 195 197 198 202 204
212 214 216 216 216 216 216 214 214 215 213 212 213 215 216 217 220 221 222 223 224 224 225 226 228 229 228 225 220 216 212 210 209 210 210 209 206 206 207 207 206 205 208 211 209 207 210 214 216 211 203 200 199 198 197 197 200 203 205 205 205 206 208 209 209 208 209 209 206 203 202 202 202 202 201 201 201 201 201 199 198 199 199 200 205 206
214 214 216 217 217 217 218 216 215 216 215 214 214 215 216 217 219 220 222 223 224 225 226 226 228 231 231 230 226 220 215 211 211 212 211 207 204 204 206 206 205 204 206 210 210 207 208 213 218 216 208 204 202 202 201 199 198 201 205 207 207 206 208 210 211 210 210 210 209 207 207 205 203 203 203 203 203 205 204 203 203 203 201 203 207 207
218 217 217 218 218 218 219 218 217 217 216 215 215 216 217 218 219 220 221 223 224 226 227 227 229 231 232 232 231 227 220 214 212 213 210 206 203 203 206 206 204 205 207 210 211 209 208 212 218 219 215 209 205 204 203 199 197 199 202 206 207 208 209 210 211 211 211 210 210 209 210 210 207 204 204 205 206 208 207 206 207 206 204 206 208 209
220 220 219 220 220 219 219 220 219 218 217 217 216 216 218 219 220 220 222 223 223 226 228 228 229 230 230 231 232 230 225 218 213 212 210 205 203 204 206 205 204 205 207 210 211 209 208 211 217 220 220 216 212 209 205 200 197 198 199 202 205 207 210 212 212 212 213 212 211 210 212 213 212 208 206 206 208 210 210 209 208 208 208 209 210 211
220 221 221 222 223 222 221 221 220 219 218 217 217 216 218 219 220 221 222 223 223 225 227 228 230 231 230 231 232 232 229 223 215 212 211 208 204 204 205 204 204 204 205 206 208 207 207 209 214 219 222 221 218 216 211 205 200 199 198 199 201 204 208 211 212 213 213 213 213 212 212 214 215 213 210 209 211 213 213 212 210 209 210 211 212 213
221 222 222 223 224 225 224 223 222 221 220 218 218 217 217 219 220 222 223 224 224 225 226 228 229 231 232 232 233 233 232 228 222 215 212 211 209 207 206 204 203 203 202 202 204 205 206 208 211 215 220 221 219 218 218 214 208 204 201 199 199 202 205 208 211 212 213 214 215 214 213 214 215 215 213 212 213 216 216 215 212 211 211 212 213 214
224 224 225 226 227 228 227 226 225 224 222 221 220 218 218 218 219 221 223 224 225 226 228 228 229 231 232 232 233 233 233 232 228 222 216 214 214 214 212 207 203 203 203 202 202 204 205 207 209 213 218 222 220 218 219 221 218 214 209 204 202 202 203 207 209 210 212 213 214 214 213 213 214 215 215 214 215 218 219 218 216 214 213 213 214 215
229 229 230 230 231 232 232 232 230 228 227 225 223 221 220 219 219 220 222 223 225 227 228 229 229 231 232 233 233 234 233 233 232 228 223 218 216 217 218 212 206 206 207 207 207 208 210 211 212 214 218 223 224 221 220 222 223 223 219 215 211 207 206 207 208 209 211 212 213 214 214 214 213 214 215 216 217 219 221 221 219 218 217 216 216 216
232 233 233 233 234 235 236 236 236 235 234 231 229 226 224 222 221 221 222 223 225 228 229 229 230 231 232 234 235 235 234 234 233 232 229 225 221 219 219 216 211 209 211 212 213 216 218 219 219 221 222 224 226 226 224 223 224 226 226 224 221 218 214 211 209 209 211 212 212 213 214 214 214 214 215 217 219 220 222 223 222 222 221 219 218 218
233 234 234 233 234 236 236 237 237 238 238 237 235 232 229 227 225 224 224 224 225 228 229 230 231 231 231 233 235 236 236 235 235 234 233 231 227 223 221 219 215 213 213 214 215 219 222 223 223 224 226 226 227 228 229 228 228 228 228 228 227 226 224 221 216 213 213 213 213 213 214 215 215 215 215 217 219 220 222 223 223 224 224 222 221 220
231 233 233 233 234 235 236 237 237 237 238 239 238 237 235 233 231 229 227 226 227 229 230 231 231 231 231 232 234 236 237 236 236 235 234 233 231 227 225 223 220 217 216 216 217 219 222 225 227 227 227 228 229 228 229 231 233 232 231 230 229 229 229 229 227 223 219 216 215 216 216 215 216 217 217 218 219 220 222 223 225 225 225 225 224 223
233 233 233 234 235 236 236 237 238 238 238 239 239 239 238 237 235 234 232 231 230 230 231 232 233 232 232 232 233 236 238 238 237 236 235 234 233 231 228 226 225 223 220 220 220 221 223 225 228 229 228 228 229 230 230 230 234 237 236 234 232 230 230 230 230 229 225 221 220 220 220 219 218 218 219 219 220 221 222 223 225 226 226 226 227 226
243 240 238 237 237 237 237 238 238 239 239 239 239 240 240 239 238 237 236 235 234 232 232 233 234 234 233 233 233 234 237 239 238 237 236 235 233 232 231 229 228 227 226 224 224 225 226 227 229 230 230 229 229 230 231 230 231 235 239 239 236 233 232 231 230 230 228 225 224 224 224 223 222 221 221 222 223 223 223 224 225 227 227 228 228 229
253 251 248 245 243 242 240 240 239 239 239 239 240 240 241 241 240 239 238 237 237 236 235 235 235 236 236 235 234 234 235 237 238 238 237 236 234 232 231 231 229 228 228 228 228 229 230 230 231 232 232 231 230 230 231 231 231 233 237 240 239 236 234 233 231 231 229 228 227 226 226 225 224 224 223 224 225 226 227 227 227 227 229 230 230 231
260 257 255 252 250 247 245 244 243 241 239 238 239 240 241 242 241 241 240 239 239 238 238 237 236 236 236 237 236 235 235 235 237 238 237 237 235 232 230 230 230 228 227 228 230 231 232 232 232 232 233 232 231 230 230 231 231 232 235 238 239 237 235 234 233 232 230 229 228 228 227 226 226 225 225 226 227 228 229 229 229 229 230 232 233 234
261 259 257 255 253 251 249 248 246 245 243 241 239 239 239 240 241 242 242 241 240 240 240 239 238 237 237 237 237 237 237 236 236 237 237 237 235 234 231 229 229 229 226 226 228 231 232 233 233 233 233 232 231 231 231 231 232 233 233 235 238 237 235 235 234 233 232 231 229 229 228 227 226 226 226 227 228 229 230 230 231 232 233 234 235 236
261 259 257 255 253 252 250 249 249 248 246 245 244 241 240 239 239 240 242 242 242 242 241 241 240 240 239 238 238 237 237 237 237 236 237 236 235 234 232 229 228 228 227 225 226 229 231 233 233 232 232 232 231 231 231 231 233 233 232 231 234 236 235 234 233 233 234 233 232 230 229 228 227 226 227 227 228 229 230 231 231 233 234 234 235 236
264 261 258 256 254 252 251 250 250 249 248 247 246 245 244 242 240 239 240 241 242 242 242 242 242 241 240 240 239 239 238 238 238 237 236 236 235 234 232 230 227 227 226 225 225 227 230 232 233 232 231 232 231 231 232 232 233 233 231 229 231 233 234 233 232 232 232 233 233 233 233 232 230 228 228 229 229 229 230 231 232 232 233 234 234 235
275 266 261 258 255 253 252 252 251 250 249 249 248 247 246 245 244 242 240 240 241 242 242 242 242 242 241 241 240 241 240 239 238 238 237 237 236 235 233 231 228 226 225 225 225 226 229 231 232 232 230 231 231 231 232 232 233 233 231 228 229 231 232 232 232 231 231 232 234 235 235 235 234 233 232 232 232 231 231 231 232 232 233 234 234 234
287 278 268 261 257 255 254 254 253 253 253 253 252 251 249 248 247 245 243 242 241 241 241 241 242 242 243 242 241 241 241 240 240 240 239 238 237 236 235 233 230 227 224 223 224 226 228 230 232 231 230 230 230 230 231 232 233 234 233 229 228 230 232 233 233 232 231 232 234 235 236 237 237 236 235 235 235 235 233 232 232 233 234 234 234 233
280 282 279 271 264 260 258 256 256 256 256 256 256 256 255 254 252 250 248 246 244 243 242 241 241 242 242 243 242 242 242 242 240 241 241 239 238 237 236 235 232 229 225 223 223 225 227 229 231 231 230 230 229 229 230 232 233 235 235 231 228 230 233 234 234 233 233 233 234 235 236 237 238 238 237 237 237 237 234 233 233 233 233 233 233 233
268 271 275 275 274 273 269 265 262 260 260 260 261 261 261 259 256 253 252 251 249 247 245 244 243 242 241 242 242 242 242 242 241 241 241 241 240 238 237 236 234 231 228 224 222 223 225 227 230 231 230 229 228 228 229 231 233 235 236 235 232 231 233 235 235 233 232 235 236 236 236 237 238 238 237 237 237 237 235 233 232 232 232 231 231 232
264 265 267 269 270 273 274 273 273 270 268 267 267 267 267 264 261 256 254 253 252 251 250 249 247 245 243 242 242 242 242 243 242 241 241 241 241 240 239 237 236 234 231 227 224 223 223 225 228 230 230 229 228 228 229 231 233 234 235 236 235 234 233 234 236 235 232 233 237 238 237 236 236 236 235 234 235 235 235 233 231 229 229 229 229 229
266 265 266 267 267 268 270 273 276 276 274 272 270 269 268 267 265 261 257 254 253 253 253 253 252 250 247 245 243 242 242 242 242 242 241 240 241 241 240 239 237 235 234 230 226 224 222 223 225 228 230 229 229 229 230 231 233 234 235 236 236 236 236 235 236 236 234 233 234 238 239 238 236 237 236 235 236 236 236 236 234 231 229 228 227 227
269 267 267 266 266 266 268 272 275 274 273 273 271 270 269 268 266 263 260 257 256 256 256 256 255 255 252 249 246 245 243 242 242 242 241 241 240 241 241 240 238 237 235 233 230 226 223 222 223 226 228 229 230 231 232 232 233 234 236 236 236 237 237 237 237 237 236 235 234 237 240 241 239 238 236 235 236 236 236 237 237 235 233 230 228 227
270 269 269 268 266 266 267 269 271 272 271 270 270 270 269 268 266 263 261 260 259 259 259 260 260 260 259 256 252 249 246 244 242 242 242 241 240 240 240 240 239 238 236 235 234 230 226 223 223 224 226 227 229 232 234 235 234 234 236 237 237 238 238 238 238 238 237 237 236 237 241 242 242 240 236 234 233 232 232 234 235 235 234 232 229 227
270 272 272 271 268 267 265 266 268 269 269 269 269 268 266 266 265 265 264 263 263 262 262 262 262 263 263 262 259 256 251 248 245 242 242 241 241 240 240 240 240 239 237 236 236 234 230 225 223 224 224 226 229 232 234 236 236 236 237 237 237 238 238 238 238 238 238 238 237 237 239 242 242 241 239 236 233 230 229 230 232 233 234 233 228 226
273 274 275 274 271 268 266 265 265 265 266 268 268 267 266 265 265 265 264 264 264 264 264 265 265 265 265 265 263 260 257 253 250 246 243 242 241 240 240 240 240 239 238 237 237 236 234 229 225 224 224 225 228 230 233 235 236 237 238 238 237 237 238 239 240 239 238 237 237 236 238 240 241 241 240 238 235 231 228 227 227 229 233 235 230 225
275 274 275 275 275 273 270 266 264 263 264 266 266 265 266 265 264 263 262 262 263 264 265 267 268 268 268 267 266 264 261 258 255 251 248 244 242 241 240 240 240 240 239 238 237 237 236 233 229 226 225 225 227 229 231 233 234 235 237 238 238 237 237 239 242 240 236 235 235 235 236 238 240 240 239 238 235 232 229 227 225 225 228 231 230 227
274 274 274 274 275 275 270 265 264 264 264 264 264 263 265 265 264 264 263 264 265 266 267 269 269 269 269 268 268 266 264 261 259 256 253 250 247 244 241 240 239 239 239 238 238 237 237 236 234 230 227 226 227 228 230 231 232 233 234 236 237 237 236 237 241 242 237 234 233 234 235 237 239 239 239 238 236 232 229 227 226 225 226 228 228 227
275 277 277 277 278 277 270 264 263 263 263 263 264 263 264 264 265 265 266 267 268 269 270 271 271 271 270 269 268 267 265 263 261 259 257 255 253 249 245 242 240 239 239 239 238 237 237 237 237 234 230 229 228 228 229 229 230 231 233 233 234 236 237 236 239 243 241 234 232 233 234 235 237 239 238 238 236 232 228 226 225 227 228 228 226 226
Height
5845 5848 5851 5853 5856 5858 5860 5861 5862 5865 5868 5870 5872 5875 5877 5879 5881 5883 5885 5888 5890 5891 5892 5894 5894 5895 5896 5896 5896 5898 5901 5902 5904 5905 5907 5908 5910 5911 5911 5912 5913 5914 5916 5917 5919 5921 5922 5923 5925 5926 5928 5929 5931 5932 5933 5934 5935 5936 5938 5939 5940 5941 5941 5942 5942 5943 5944 5945 5945 5946 5947 5948 5949 5949 5950 5950 5950 5951 5951 5951 5951 5951 5952 5952 5953 5953
5843 5846 5848 5850 5851 5853 5856 5858 5860 5863 5866 5869 5871 5873 5875 5877 5879 5881 5884 5886 5888 5890 5892 5893 5894 5895 5896 5897 5898 5899 5901 5902 5902 5904 5905 5907 5909 5910 5911 5912 5913 5914 5916 5917 5918 5920 5922 5923 5925 5926 5928 5929 5930 5931 5932 5934 5935 5936 5938 5939 5940 5941 5941 5942 5943 5944 5945 5946 5947 5947 5948 5949 5950 5950 5951 5951 5951 5952 5952 5952 5952 5953 5953 5953 5954 5955
5840 5843 5845 5846 5848 5850 5853 5856 5858 5861 5864 5867 5869 5871 5873 5875 5877 5880 5882 5885 5887 5889 5891 5892 5894 5895 5896 5898 5899 5900 5901 5901 5902 5903 5904 5905 5907 5909 5910 5912 5913 5914 5915 5916 5918 5920 5922 5923 5924 5926 5927 5928 5930 5931 5932 5933 5935 5936 5937 5939 5940 5941 5941 5942 5943 5944 5945 5946 5947 5948 5949 5950 5951 5951 5951 5951 5952 5952 5953 5953 5953 5954 5954 5955 5955 5956
5839 5840 5842 5844 5846 5848 5851 5853 5855 5858 5861 5865 5867 5869 5871 5873 5875 5878 5881 5884 5886 5888 5890 5892 5894 5895 5896 5898 5899 5900 5901 5902 5903 5904 5904 5905 5906 5907 5909 5911 5913 5913 5914 5916 5917 5919 5921 5923 5924 5926 5927 5928 5930 5931 5932 5933 5935 5936 5937 5938 5939 5941 5941 5943 5944 5945 5946 5947 5948 5949 5950 5950 5951 5951 5952 5952 5952 5953 5953 5954 5954 5955 5955 5956 5956 5957
5835 5837 5838 5841 5844 5846 5848 5851 5853 5856 5859 5862 5865 5868 5870 5871 5873 5876 5879 5882 5885 5887 5889 5891 5893 5895 5896 5897 5898 5900 5902 5903 5905 5906 5906 5906 5907 5908 5910 5911 5912 5913 5914 5915 5916 5918 5920 5922 5924 5925 5927 5928 5930 5931 5932 5933 5934 5936 5937 5938 5939 5940 5942 5943 5944 5945 5946 5946 5947 5948 5949 5950 5950 5951 5952 5953 5953 5954 5954 5954 5955 5955 5956 5957 5957 5958
5831 5833 5835 5839 5841 5844 5846 5849 5851 5854 5857 5860 5864 5866 5868 5870 5871 5874 5877 5880 5883 5885 5887 5890 5893 5894 5896 5897 5899 5901 5902 5904 5905 5906 5907 5907 5908 5909 5910 5912 5913 5914 5914 5915 5916 5917 5918 5920 5922 5924 5926 5928 5929 5930 5931 5932 5934 5935 5937 5938 5939 5940 5942 5943 5944 5944 5945 5946 5947 5947 5949 5950 5951 5952 5953 5954 5954 5955 5955 5955 5956 5956 5957 5957 5958 5959
5828 5831 5834 5837 5839 5842 5844 5847 5850 5853 5856 5859 5863 5865 5867 5868 5870 5872 5875 5878 5880 5882 5885 5888 5891 5893 5896 5897 5900 5901 5903 5904 5906 5907 5907 5908 5909 5909 5910 5911 5913 5914 5915 5915 5916 5917 5918 5920 5921 5924 5925 5927 5928 5929 5930 5932 5934 5935 5937 5938 5939 5940 5941 5943 5944 5944 5945 5946 5946 5947 5949 5951 5952 5953 5954 5954 5955 5956 5956 5956 5956 5957 5957 5958 5959 5960
5826 5829 5831 5834 5837 5840 5843 5846 5848 5851 5854 5858 5861 5863 5865 5866 5868 5870 5873 5875 5877 5879 5883 5887 5889 5892 5894 5897 5899 5901 5903 5904 5905 5906 5907 5908 5908 5909 5909 5910 5911 5913 5915 5916 5916 5917 5918 5919 5921 5922 5924 5925 5927 5928 5930 5931 5933 5935 5936 5937 5939 5940 5941 5942 5943 5944 5945 5946 5946 5948 5949 5951 5952 5954 5954 5955 5956 5957 5957 5957 5957 5957 5958 5958 5959 5960
5823 5826 5829 5832 5836 5838 5841 5844 5846 5849 5852 5855 5857 5858 5861 5863 5865 5867 5870 5872 5874 5877 5882 5885 5888 5891 5892 5895 5897 5899 5900 5901 5902 5902 5903 5905 5906 5907 5908 5909 5910 5912 5914 5916 5916 5917 5917 5919 5920 5921 5923 5924 5926 5927 5929 5930 5932 5934 5935 5937 5938 5940 5941 5942 5943 5944 5945 5946 5947 5948 5950 5951 5952 5954 5955 5955 5956 5957 5957 5957 5958 5958 5958 5959 5959 5960
5820 5823 5827 5831 5833 5836 5839 5841 5844 5847 5850 5851 5853 5855 5858 5860 5862 5865 5868 5870 5872 5876 5880 5883 5886 5889 5890 5892 5894 5896 5897 5897 5898 5899 5900 5901 5902 5903 5905 5907 5909 5910 5912 5915 5916 5917 5917 5917 5918 5920 5921 5923 5925 5926 5928 5929 5931 5933 5935 5937 5938 5939 5941 5942 5943 5944 5945 5946 5948 5949 5950 5951 5952 5953 5954 5955 5956 5957 5957 5958 5958 5958 5959 5959 5960 5960
5818 5822 5825 5828 5831 5834 5837 5839 5842 5845 5846 5848 5850 5853 5856 5858 5860 5863 5866 5868 5870 5875 5878 5881 5884 5887 5888 5889 5892 5893 5894 5895 5896 5897 5898 5900 5900 5901 5902 5904 5906 5908 5911 5913 5915 5917 5917 5917 5918 5919 5920 5922 5924 5926 5928 5930 5931 5933 5935 5936 5937 5939 5940 5941 5943 5944 5945 5946 5947 5949 5950 5950 5951 5953 5954 5955 5956 5957 5958 5958 5958 5959 5959 5960 5960 5961
5816 5819 5822 5825 5828 5831 5834 5836 5839 5842 5843 5846 5848 5851 5853 5856 5858 5861 5863 5865 5868 5873 5876 5879 5882 5885 5885 5887 5889 5891 5892 5894 5895 5896 5897 5899 5900 5900 5900 5901 5903 5905 5907 5910 5912 5914 5917 5918 5919 5919 5920 5922 5924 5926 5928 5930 5931 5932 5934 5935 5937 5938 5939 5941 5942 5943 5945 5946 5947 5948 5949 5950 5951 5952 5954 5955 5957 5958 5958 5958 5958 5959 5960 5961 5961 5961
5813 5816 5819 5822 5825 5828 5831 5833 5836 5839 5841 5843 5846 5848 5850 5852 5855 5857 5859 5861 5865 5871 5874 5877 5880 5882 5882 5884 5887 5889 5891 5893 5894 5895 5897 5898 5899 5901 5901 5902 5902 5903 5904 5906 5909 5911 5914 5917 5919 5920 5921 5922 5924 5926 5928 5929 5930 5932 5933 5934 5936 5937 5938 5940 5941 5943 5944 5945 5946 5948 5949 5950 5951 5952 5953 5955 5956 5958 5959 5959 5959 5960 5961 5962 5963 5963
5810 5813 5816 5819 5822 5825 5828 5830 5833 5836 5839 5841 5843 5845 5847 5850 5852 5854 5856 5858 5863 5869 5871 5874 5877 5878 5880 5882 5885 5887 5889 5891 5893 5894 5895 5897 5899 5900 5901 5902 5903 5904 5904 5905 5906 5908 5911 5914 5917 5918 5919 5921 5922 5924 5926 5928 5930 5931 5932 5933 5935 5936 5937 5939 5940 5942 5943 5944 5946 5947 5948 5950 5951 5952 5953 5955 5956 5957 5958 5959 5959 5960 5961 5963 5964 5964
5807 5809 5812 5816 5819 5822 5824 5827 5830 5833 5836 5838 5840 5843 5845 5847 5850 5852 5854 5857 5862 5867 5870 5871 5873 5875 5877 5880 5882 5884 5887 5889 5891 5893 5894 5895 5897 5898 5899 5900 5902 5903 5904 5905 5905 5907 5909 5911 5914 5916 5917 5919 5921 5922 5924 5927 5929 5930 5931 5932 5933 5934 5936 5938 5939 5941 5942 5943 5945 5946 5948 5949 5950 5951 5953 5954 5956 5957 5958 5959 5959 5960 5961 5962 5964 5964
5804 5806 5810 5813 5816 5819 5821 5824 5827 5830 5833 5835 5837 5840 5842 5844 5847 5850 5852 5855 5860 5865 5867 5868 5870 5871 5874 5877 5879 5881 5883 5886 5889 5891 5892 5894 5895 5896 5897 5898 5900 5901 5903 5904 5905 5906 5907 5908 5910 5913 5915 5917 5919 5920 5922 5924 5927 5929 5930 5931 5932 5933 5935 5936 5938 5939 5940 5942 5944 5946 5947 5948 5949 5951 5952 5954 5955 5956 5957 5958 5959 5960 5961 5962 5962 5963
5802 5804 5807 5810 5812 5815 5818 5820 5824 5827 5829 5832 5834 5837 5839 5842 5845 5847 5849 5852 5856 5861 5863 5864 5866 5868 5871 5874 5876 5878 5880 5883 5886 5888 5890 5891 5893 5894 5895 5897 5898 5899 5901 5903 5904 5905 5906 5907 5908 5910 5913 5915 5917 5919 5921 5922 5924 5926 5928 5929 5930 5932 5933 5935 5936 5938 5939 5941 5943 5944 5946 5947 5949 5950 5951 5953 5954 5955 5957 5958 5959 5960 5960 5960 5961 5962
5799 5801 5804 5806 5809 5812 5814 5817 5820 5823 5826 5829 5831 5833 5836 5839 5841 5843 5846 5848 5852 5855 5858 5860 5862 5864 5867 5870 5872 5875 5877 5880 5883 5885 5887 5889 5891 5892 5894 5895 5896 5897 5899 5901 5903 5905 5906 5907 5907 5908 5910 5912 5915 5917 5918 5920 5922 5923 5925 5927 5929 5930 5932 5933 5935 5936 5938 5939 5941 5943 5945 5946 5947 5949 5950 5952 5953 5954 5956 5957 5958 5959 5959 5959 5960 5961
5796 5798 5801 5803 5806 5808 5811 5814 5816 5819 5822 5825 5827 5830 5833 5835 5837 5840 5842 5845 5848 5851 5853 5855 5858 5860 5862 5866 5869 5872 5875 5877 5880 5882 5884 5887 5889 5891 5892 5894 5895 5896 5897 5899 5902 5904 5906 5906 5907 5907 5908 5909 5911 5913 5915 5917 5919 5921 5923 5925 5927 5928 5929 5931 5933 5934 5936 5938 5939 5941 5943 5944 5946 5947 5948 5950 5952 5953 5954 5955 5956 5957 5958 5959 5959 5960
5793 5795 5798 5801 5803 5805 5808 5810 5812 5815 5818 5821 5824 5827 5829 5831 5834 5836 5839 5841 5845 5847 5849 5852 5854 5856 5858 5862 5866 5869 5872 5874 5877 5880 5882 5885 5887 5889 5891 5892 5894 5895 5896 5897 5899 5901 5903 5904 5904 5905 5906 5907 5908 5910 5911 5914 5916 5918 5920 5922 5924 5926 5928 5929 5931 5933 5935 5936 5938 5939 5940 5942 5944 5946 5947 5948 5950 5951 5953 5954 5955 5956 5957 5958 5959 5959
5790 5793 5795 5798 5800 5802 5805 5807 5809 5812 5815 5818 5820 5823 5825 5828 5830 5833 5835 5838 5841 5844 5846 5848 5850 5851 5854 5858 5862 5866 5869 5872 5875 5877 5880 5882 5885 5887 5889 5891 5892 5894 5895 5896 5897 5898 5900 5901 5902 5902 5903 5904 5905 5907 5909 5910 5913 5915 5917 5920 5922 5924 5926 5928 5930 5932 5934 5935 5936 5938 5939 5940 5942 5943 5945 5947 5948 5950 5951 5952 5954 5955 5956 5957 5958 5958
5788 5790 5792 5795 5797 5799 5801 5804 5807 5809 5812 5815 5817 5819 5822 5825 5827 5830 5832 5834 5837 5840 5842 5845 5847 5848 5851 5855 5858 5862 5866 5869 5872 5875 5877 5880 5882 5885 5887 5889 5890 5892 5893 5894 5895 5896 5897 5899 5900 5901 5901 5902 5903 5905 5907 5908 5910 5912 5915 5917 5919 5921 5924 5926 5928 5930 5931 5933 5935 5936 5937 5938 5939 5941 5943 5945 5947 5948 5949 5951 5952 5953 5955 5956 5956 5957
5785 5788 5790 5792 5794 5796 5798 5801 5804 5806 5809 5812 5814 5816 5819 5821 5824 5826 5828 5831 5834 5836 5838 5841 5843 5845 5848 5851 5854 5858 5862 5866 5869 5872 5875 5878 5880 5882 5884 5886 5888 5890 5891 5892 5893 5894 5896 5897 5898 5899 5901 5902 5902 5903 5904 5906 5908 5910 5912 5914 5916 5919 5921 5923 5925 5927 5929 5931 5933 5934 5935 5936 5938 5940 5942 5943 5945 5946 5948 5949 5951 5952 5953 5954 5955 5956
5783 5785 5787 5789 5791 5794 5796 5798 5800 5803 5806 5808 5811 5813 5816 5818 5820 5823 5825 5828 5831 5832 5834 5837 5839 5841 5843 5846 5849 5853 5857 5862 5866 5869 5872 5874 5877 5879 5881 5883 5885 5887 5888 5890 5891 5892 5894 5895 5897 5898 5900 5901 5902 5902 5902 5903 5905 5907 5909 5911 5913 5916 5918 5920 5922 5924 5927 5929 5930 5932 5933 5935 5937 5938 5940 5942 5943 5945 5946 5947 5949 5950 5951 5952 5953 5954
5780 5782 5784 5786 5788 5790 5792 5794 5797 5799 5802 5805 5807 5810 5812 5814 5817 5819 5822 5824 5826 5828 5830 5832 5834 5836 5840 5843 5845 5849 5853 5857 5861 5865 5868 5871 5873 5876 5878 5880 5882 5884 5885 5887 5888 5890 5892 5893 5895 5896 5898 5899 5901 5902 5902 5902 5902 5904 5906 5908 5910 5912 5914 5916 5919 5922 5924 5926 5928 5929 5931 5933 5935 5937 5939 5940 5941 5942 5944 5945 5947 5948 5949 5950 5951 5952
5777 5778 5780 5782 5784 5786 5788 5790 5793 5796 5798 5801 5803 5806 5808 5811 5813 5815 5818 5820 5822 5824 5826 5827 5829 5832 5836 5839 5842 5845 5848 5852 5856 5861 5864 5867 5870 5872 5875 5877 5879 5881 5883 5884 5885 5887 5889 5891 5893 5894 5895 5896 5898 5901 5902 5902 5902 5902 5903 5904 5906 5908 5910 5913 5915 5918 5921 5923 5925 5927 5929 5931 5933 5935 5937 5938 5939 5940 5941 5943 5944 5946 5947 5948 5949 5950
5774 5775 5777 5779 5781 5783 5785 5787 5790 5792 5795 5797 5799 5802 5804 5807 5809 5811 5813 5815 5818 5819 5820 5823 5826 5829 5831 5834 5837 5840 5844 5847 5851 5855 5859 5862 5866 5869 5871 5874 5876 5878 5880 5881 5883 5884 5886 5888 5890 5892 5893 5894 5896 5898 5900 5901 5901 5901 5902 5902 5903 5904 5906 5909 5911 5914 5917 5919 5922 5924 5926 5928 5930 5932 5934 5935 5936 5937 5938 5940 5942 5943 5945 5946 5947 5949
5772 5773 5775 5776 5778 5780 5782 5784 5786 5789 5791 5793 5795 5798 5800 5802 5805 5807 5809 5811 5813 5814 5815 5819 5822 5825 5827 5830 5833 5835 5839 5842 5846 5850 5854 5857 5861 5864 5867 5870 5872 5874 5876 5878 5880 5882 5883 5885 5887 5889 5891 5892 5894 5895 5897 5899 5900 5901 5901 5902 5901 5902 5903 5905 5907 5910 5912 5915 5917 5920 5923 5925 5927 5929 5931 5932 5933 5935 5936 5938 5940 5941 5942 5944 5945 5947
5769 5771 5772 5774 5775 5777 5779 5781 5783 5785 5787 5789 5792 5794 5796 5798 5801 5803 5805 5807 5808 5809 5811 5815 5818 5820 5823 5825 5828 5831 5834 5837 5840 5844 5848 5851 5855 5859 5862 5865 5868 5870 5871 5874 5876 5878 5880 5882 5884 5886 5888 5890 5891 5893 5894 5896 5897 5899 5900 5901 5901 5902 5902 5903 5904 5906 5908 5910 5913 5916 5919 5921 5924 5926 5928 5929 5931 5932 5934 5936 5937 5939 5940 5942 5943 5945
5767 5768 5770 5771 5772 5774 5775 5777 5779 5781 5783 5785 5788 5790 5793 5795 5797 5799 5801 5802 5804 5805 5808 5810 5813 5815 5819 5821 5823 5826 5829 5832 5835 5838 5841 5845 5849 5853 5856 5859 5862 5865 5867 5869 5872 5874 5876 5878 5880 5882 5884 5886 5888 5890 5892 5893 5894 5896 5897 5899 5900 5901 5902 5903 5903 5904 5906 5908 5911 5913 5915 5917 5920 5922 5924 5926 5928 5930 5931 5933 5935 5936 5938 5940 5941 5942
5765 5766 5768 5769 5770 5771 5772 5774 5775 5777 5779 5781 5783 5786 5788 5790 5792 5794 5796 5798 5800 5802 5803 5805 5808 5810 5814 5817 5819 5821 5823 5826 5829 5832 5835 5839 5843 5847 5850 5853 5856 5859 5862 5864 5866 5869 5871 5874 5876 5878 5880 5882 5884 5886 5888 5890 5892 5893 5895 5896 5897 5899 5900 5902 5903 5905 5906 5908 5909 5910 5911 5913 5916 5919 5921 5923 5925 5927 5928 5930 5932 5934 5935 5937 5938 5940
5763 5764 5766 5767 5767 5768 5770 5771 5772 5773 5775 5777 5779 5781 5783 5785 5787 5790 5792 5794 5796 5798 5799 5801 5802 5805 5809 5812 5814 5816 5818 5820 5823 5826 5829 5833 5837 5840 5844 5847 5850 5853 5857 5859 5861 5863 5866 5868 5871 5873 5876 5878 5880 5882 5884 5886 5888 5890 5891 5893 5894 5895 5897 5899 5901 5903 5905 5907 5908 5908 5909 5911 5913 5915 5918 5920 5922 5923 5925 5927 5928 5931 5932 5934 5936 5937
5760 5762 5763 5764 5765 5766 5767 5768 5769 5770 5771 5773 5774 5776 5778 5780 5783 5785 5787 5789 5791 5793 5795 5796 5797 5800 5804 5807 5809 5811 5813 5815 5817 5821 5824 5827 5831 5834 5838 5841 5844 5847 5850 5853 5856 5858 5860 5863 5865 5868 5870 5873 5875 5878 5880 5882 5884 5886 5888 5889 5890 5892 5893 5895 5897 5900 5902 5903 5904 5905 5907 5909 5911 5913 5915 5917 5919 5920 5922 5923 5926 5928 5930 5932 5933 5934
5757 5758 5759 5761 5762 5763 5764 5765 5766 5767 5768 5769 5771 5772 5773 5775 5778 5780 5782 5784 5786 5788 5790 5791 5793 5796 5799 5801 5803 5805 5808 5810 5812 5815 5819 5822 5825 5828 5831 5834 5837 5840 5843 5846 5849 5852 5854 5857 5860 5862 5865 5867 5870 5873 5875 5878 5880 5882 5884 5885 5886 5888 5889 5891 5893 5895 5897 5898 5899 5901 5903 5905 5907 5910 5912 5913 5915 5916 5918 5921 5923 5925 5927 5928 5929 5931
5752 5753 5755 5756 5758 5759 5760 5761 5762 5763 5765 5766 5767 5768 5769 5771 5773 5775 5777 5779 5781 5783 5785 5787 5789 5791 5792 5795 5797 5799 5802 5805 5807 5809 5812 5815 5819 5822 5825 5828 5831 5834 5837 5839 5842 5845 5848 5851 5854 5856 5859 5861 5864 5867 5870 5873 5875 5878 5879 5881 5882 5883 5885 5887 5888 5890 5892 5893 5894 5896 5898 5900 5903 5905 5907 5909 5911 5912 5915 5917 5920 5922 5924 5926 5927 5929
5747 5748 5750 5751 5752 5754 5755 5756 5757 5758 5761 5762 5763 5764 5765 5766 5768 5770 5772 5774 5776 5778 5780 5781 5783 5785 5787 5789 5791 5794 5796 5799 5801 5803 5806 5809 5812 5815 5819 5822 5825 5827 5830 5833 5836 5839 5841 5844 5847 5850 5853 5855 5858 5861 5864 5867 5870 5872 5874 5876 5877 5878 5880 5882 5884 5885 5887 5888 5889 5891 5892 5894 5897 5900 5902 5904 5906 5908 5911 5914 5916 5919 5921 5923 5924 5926
5743 5744 5745 5746 5747 5749 5750 5751 5752 5754 5756 5757 5757 5759 5760 5762 5763 5765 5767 5769 5771 5773 5774 5776 5778 5780 5781 5783 5785 5787 5789 5792 5795 5797 5799 5802 5805 5808 5812 5815 5818 5821 5824 5827 5830 5832 5835 5837 5840 5843 5846 5849 5852 5855 5858 5861 5864 5867 5869 5871 5872 5873 5875 5876 5878 5880 5882 5884 5885 5886 5887 5889 5891 5894 5896 5898 5901 5904 5906 5909 5912 5914 5916 5919 5921 5923
5740 5741 5741 5742 5743 5744 5745 5746 5747 5749 5750 5751 5751 5753 5755 5756 5758 5760 5761 5764 5766 5767 5768 5770 5772 5773 5775 5777 5778 5780 5783 5786 5787 5789 5792 5795 5798 5801 5805 5808 5812 5814 5817 5820 5823 5826 5828 5831 5834 5837 5840 5843 5845 5848 5851 5854 5858 5861 5863 5865 5867 5868 5869 5870 5872 5874 5877 5880 5882 5883 5885 5886 5888 5890 5892 5894 5896 5899 5902 5905 5907 5909 5911 5914 5916 5919
5737 5738 5738 5739 5740 5741 5742 5743 5743 5744 5745 5745 5746 5748 5749 5751 5753 5754 5756 5759 5760 5761 5762 5764 5765 5767 5769 5771 5773 5774 5776 5779 5781 5783 5785 5788 5791 5794 5797 5801 5804 5807 5810 5813 5816 5819 5822 5825 5828 5831 5834 5837 5839 5842 5845 5848 5851 5854 5857 5859 5861 5863 5863 5864 5866 5869 5873 5876 5878 5881 5882 5884 5886 5888 5890 5891 5893 5895 5897 5899 5901 5904 5906 5908 5911 5913
5735 5735 5736 5736 5737 5738 5739 5739 5740 5740 5741 5741 5742 5743 5744 5745 5747 5749 5751 5753 5754 5754 5755 5757 5759 5760 5763 5765 5767 5769 5770 5772 5775 5776 5778 5781 5784 5786 5790 5793 5797 5800 5803 5806 5809 5812 5816 5818 5821 5825 5828 5830 5833 5836 5838 5841 5845 5848 5851 5853 5855 5856 5857 5858 5862 5867 5871 5873 5875 5877 5879 5881 5883 5885 5887 5889 5890 5891 5893 5894 5896 5898 5901 5903 5906 5908
5734 5734 5734 5734 5734 5735 5736 5736 5736 5737 5737 5737 5737 5738 5739 5740 5742 5744 5746 5746 5747 5748 5749 5751 5752 5754 5756 5758 5760 5762 5763 5765 5768 5770 5771 5773 5776 5779 5782 5785 5789 5792 5795 5799 5802 5805 5809 5812 5814 5818 5821 5824 5827 5829 5832 5835 5838 5841 5844 5846 5849 5850 5851 5854 5859 5864 5867 5869 5870 5873 5875 5877 5879 5881 5883 5884 5885 5886 5888 5889 5891 5893 5896 5898 5900 5903
5731 5731 5731 5732 5732 5732 5732 5733 5733 5733 5733 5733 5733 5734 5735 5735 5737 5739 5739 5739 5741 5742 5743 5745 5746 5747 5749 5751 5753 5755 5757 5758 5761 5763 5764 5766 5768 5771 5774 5777 5781 5784 5788 5791 5794 5798 5801 5804 5807 5811 5814 5817 5820 5823 5826 5828 5831 5834 5837 5839 5842 5844 5846 5849 5854 5859 5863 5864 5865 5867 5870 5873 5875 5877 5878 5879 5880 5881 5883 5884 5886 5888 5889 5892 5895 5898
5728 5728 5728 5728 5729 5729 5729 5729 5730 5730 5729 5730 5730 5730 5730 5731 5732 5733 5733 5733 5734 5736 5737 5738 5739 5741 5743 5744 5746 5748 5750 5751 5753 5755 5758 5759 5761 5764 5767 5770 5773 5776 5780 5783 5786 5789 5793 5796 5800 5803 5807 5810 5814 5817 5819 5821 5824 5827 5830 5833 5835 5837 5840 5844 5849 5853 5858 5860 5860 5861 5864 5867 5869 5869 5870 5871 5873 5875 5877 5879 5881 5881 5883 5885 5889 5892
5724 5724 5725 5725 5725 5726 5726 5726 5726 5726 5726 5726 5726 5726 5726 5727 5727 5727 5727 5728 5729 5730 5730 5731 5732 5734 5736 5737 5739 5740 5742 5744 5745 5747 5750 5753 5754 5756 5759 5762 5765 5768 5772 5775 5778 5781 5785 5788 5792 5796 5800 5803 5806 5810 5812 5815 5817 5820 5823 5826 5828 5830 5834 5838 5842 5847 5852 5854 5855 5855 5857 5859 5862 5863 5865 5869 5870 5871 5874 5876 5877 5877 5878 5880 5883 5887
5720 5720 5721 5721 5721 5722 5722 5722 5722 5723 5723 5723 5722 5722 5722 5722 5723 5723 5723 5724 5724 5725 5725 5726 5726 5727 5729 5730 5732 5733 5734 5736 5737 5739 5742 5745 5747 5749 5751 5754 5757 5760 5763 5767 5770 5773 5776 5780 5784 5788 5792 5795 5798 5802 5805 5808 5811 5813 5816 5819 5821 5823 5827 5831 5836 5841 5845 5847 5849 5850 5851 5853 5856 5858 5861 5865 5867 5869 5871 5872 5873 5876 5878 5879 5880 5883
5715 5716 5716 5716 5717 5717 5717 5718 5718 5718 5718 5719 5719 5718 5718 5718 5718 5718 5719 5719 5719 5720 5720 5721 5721 5722 5722 5724 5725 5726 5727 5728 5730 5731 5733 5736 5739 5741 5743 5745 5749 5752 5755 5759 5762 5764 5768 5772 5776 5780 5784 5787 5790 5793 5797 5800 5804 5807 5809 5812 5815 5817 5820 5824 5829 5834 5837 5840 5842 5844 5845 5847 5850 5852 5855 5858 5859 5862 5865 5866 5869 5873 5876 5876 5877 5880
5711 5711 5711 5711 5712 5712 5712 5713 5713 5713 5714 5714 5714 5714 5714 5714 5714 5714 5714 5714 5714 5714 5715 5716 5716 5716 5717 5717 5718 5719 5720 5721 5722 5723 5725 5727 5730 5733 5735 5738 5740 5744 5747 5751 5753 5756 5760 5764 5768 5772 5775 5779 5782 5785 5789 5793 5797 5800 5802 5804 5807 5810 5812 5817 5822 5827 5830 5833 5835 5838 5839 5841 5844 5847 5850 5852 5853 5856 5859 5861 5864 5869 5872 5872 5873 5876
5707 5706 5706 5706 5707 5707 5707 5707 5708 5708 5708 5709 5709 5710 5710 5709 5709 5709 5709 5709 5709 5709 5710 5710 5710 5710 5710 5711 5711 5712 5713 5713 5714 5715 5717 5718 5721 5723 5726 5729 5732 5735 5739 5742 5745 5748 5751 5756 5760 5763 5767 5771 5774 5777 5781 5785 5789 5793 5795 5797 5799 5802 5806 5810 5814 5818 5822 5825 5828 5831 5833 5834 5837 5841 5844 5847 5849 5852 5854 5856 5859 5862 5867 5869 5870 5871
5702 5701 5701 5701 5701 5702 5703 5702 5702 5702 5703 5704 5704 5704 5705 5705 5704 5704 5704 5704 5704 5704 5705 5705 5705 5705 5705 5705 5705 5706 5706 5707 5707 5708 5709 5711 5712 5714 5717 5720 5723 5727 5730 5733 5736 5739 5743 5748 5752 5755 5758 5762 5766 5769 5773 5777 5781 5785 5788 5789 5792 5795 5799 5803 5806 5810 5814 5817 5820 5823 5826 5827 5830 5834 5838 5841 5844 5846 5849 5852 5853 5856 5861 5866 5866 5867
5697 5696 5695 5696 5696 5697 5697 5696 5696 5697 5698 5698 5698 5699 5699 5699 5699 5699 5699 5699 5699 5699 5699 5699 5699 5699 5699 5699 5699 5700 5700 5700 5701 5701 5702 5704 5704 5705 5707 5710 5713 5717 5721 5724 5727 5731 5735 5739 5743 5746 5750 5753 5757 5760 5764 5768 5772 5776 5780 5782 5784 5787 5792 5796 5799 5802 5806 5809 5812 5816 5819 5821 5823 5827 5831 5835 5838 5841 5844 5846 5848 5851 5856 5860 5862 5863
5691 5691 5691 5691 5692 5692 5692 5690 5691 5692 5692 5692 5693 5693 5693 5694 5694 5693 5693 5693 5693 5693 5693 5693 5692 5692 5692 5692 5693 5693 5694 5694 5694 5694 5695 5696 5696 5697 5698 5701 5704 5708 5711 5715 5719 5723 5727 5730 5733 5737 5741 5744 5747 5751 5755 5759 5763 5767 5771 5775 5777 5780 5784 5788 5792 5795 5798 5802 5805 5808 5811 5814 5816 5820 5824 5828 5832 5836 5838 5840 5843 5846 5850 5853 5856 5858